NOAA 16 DEB

Satellite information

Favourite Embed

Satellite Type and Status

DEBRISIN ORBIT

Key statistics

Satellite NOAA 16 DEB at a glance.

Uptime

9215

Days in orbit

Revolutions

≈ 14.4

Per day

Orbit

SSO

Sun Synchronous Orbit

Inclination

98.9

Latest

Satellite identification and parameters

Extended collection of information and parameters for NOAA 16 DEB.

Object identification

Identified? True

Debris? True

Object name: NOAA 16 DEB

International designator: 2000-055LG

Object number (NORAD): 41427

Object ID (CCSDS): 41427

Country: UNITED STATES OF AMERICA (US)

Current information (Y/N): Y

RCS size: SMALL

Orbital parameters

Period: 99.908 minutes

Inclination: 98.9219 deg

SMA: 7132.266 km

Apoapsis: 770.327 km

Periapsis: 737.936 km

RAAN: 95.6707 deg

Eccentricy: 0.00227075

Argument of periapsis: 339.3616 deg

Mean anomaly: 20.6652 deg

Mean motion: 14.41323338 rev/day

Mean motion (dot): 0.00029466 rev/day2

B* drag term: 0.0090543754 1/REarth

Two-line elements (TLE)

Creation date: Dec. 11, 2025, 7:14 p.m.

Reference frame: TEME

Reference center: EARTH

Epoch: Dec. 11, 2025, 6:15 a.m. UTC

TLE line 0: 0 NOAA 16 DEB

TLE line 1: 1 41427U 00055LG 25345.26045783 .00029466 00000-0 90544-2 0 9993

TLE line 2: 2 41427 98.9219 95.6707 0022708 339.3616 20.6652 14.41323338504644

Live tracking on map

Real-time ground track for satellite NOAA 16 DEB.

In-orbit conjunctions

A list of the most updated potential collisions computed for object NOAA 16 DEB.

Target Orbit TCA Probability of collision Miss distance Type
SL-8 R/B LEO 2025-11-30 06:22:21 0.0001075116 305.0 (m) ROCKET BODY
METEOR 2-10 LEO 2025-10-08 14:20:26 0.0003023223 174.0 (m) PAYLOAD
CZ-6A DEB LEO 2025-03-05 17:36:43 0.000216059 210.0 (m) DEBRIS
COSMOS 494 LEO 2025-01-16 08:35:50 0.0002042695 335.0 (m) PAYLOAD
SL-8 DEB LEO 2024-11-15 11:51:20 0.0002118994 768.0 (m) DEBRIS

Associated space launch

The NOAA K, L and M POES satellites begin the fifth generation of improved environmental monitoring in support of NOAA missions. The instrument payload has significant improvements and additions/deletions. The instrument changes have effected the spacecraft subsystems and data formats.

NOAA 16 DEB was lifted into orbit during the mission ‘Titan II SLV | NOAA 16’, on board a Titan II SLV space rocket.

The launch took place on Sept. 21, 2000, 10:22 a.m. from Space Launch Complex 4W.

For more information about the launch, click the button.

Launch to space Titan II SLV | NOAA 16
Titan II SLV | NOAA 16

Agency: N/A

Status: Launch Successful

Launch date: Sept. 21, 2000, 10:22 a.m. UTC

Rocket: Titan II SLV

Launch pad: Space Launch Complex 4W

Location: Vandenberg SFB, CA, USA

...

Latest news about this satellite

There are no fresh news available about this satellite. Check back as we update our databases every day.


Newsletter sign-up

Weekly statistics, charts and insights to help you stay on top of the space industry.